Regional Weather Roundup
Issued by NWS

Home | Current Version | Previous Version | Graphics & Text | Print | Product List | Glossary On
Versions: 1 2 3 4 5 6 7 8 9 10 11 12 13 14 15 16 17 18 19 20 21 22 23 24 25 26 27 28 29 30 31 32 33 34 35 36 37 38 39 40 41 42 43 44 45 46 47 48 49 50
000
ASUS44 KMEG 171810
RWRTN
TENNESSEE HOURLY STATE WEATHER ROUNDUP
NATIONAL WEATHER SERVICE MEMPHIS TN
100 PM CDT THU APR 17 2014

TNZ002-004-019-021-049-052-054-088>092-171900-
WEST TENNESSEE

CITY           SKY/WX    TMP DP  RH WIND       PRES   REMARKS
MEMPHIS INTL   CLOUDY    66  39  37 SE5       30.26F
NWS MEMPHIS      N/A     68 N/A N/A MISG        N/A
JACKSON        SUNNY     65  38  36 CALM      30.28F
DYERSBURG      SUNNY     64  39  39 SE13      30.28F
UNION CITY     SUNNY     63  43  48 S10       30.27F
PARIS          SUNNY     63  38  39 VRB5      30.29F
LEXINGTON      SUNNY     64  36  34 S8        30.29F
SAVANNAH       SUNNY     65  39  38 CALM      30.29
$$

TNZ008-025-027-028-033-062-065-066-171900-
NORTH MIDDLE TENNESSEE

CITY           SKY/WX    TMP DP  RH WIND       PRES   REMARKS
NASHVILLE      MOSUNNY   63  32  31 S6        30.35F
DICKSON        SUNNY     63  34  34 SE5       30.32F
PORTLAND       SUNNY     63  34  34 SW5       30.34F
CLARKSVILLE    SUNNY     65  37  35 S7        30.31F
SMYRNA         SUNNY     62  33  33 CALM      30.35F
MURFREESBORO   SUNNY     63  30  28 VRB6      30.35F
COOKEVILLE     SUNNY     63  32  31 SE6       30.35F
LIVINGSTON     SUNNY     62  28  27 S9        30.35
GALLATIN       SUNNY     63  35  35 VRB5      30.36F
CROSSVILLE     SUNNY     58  23  26 SW8       30.37F
$$

TNZ061-075-076-078-094-096-097-171900-
SOUTH MIDDLE TENNESSEE

CITY           SKY/WX    TMP DP  RH WIND       PRES   REMARKS
LEWISBURG      SUNNY     63  35  35 VRB3      30.34F
FAYETTEVILLE   SUNNY     60  36  40 S10       30.34F
TULLAHOMA      SUNNY     61  30  31 E9        30.35F
WINCHESTER     SUNNY     63  36  36 E9        30.34F
MCMINNVILLE    SUNNY     64  30  27 S7        30.35F
COLUMBIA       SUNNY     63  45  51 VRB5      30.31F
SHELBYVILLE    SUNNY     63  36  36 SE8       30.36F
$$

TNZ017-018-042-046-047-171900-
NORTHEAST TENNESSEE

CITY           SKY/WX    TMP DP  RH WIND       PRES   REMARKS
TRI CITIES     MOSUNNY   63  22  20 SE6       30.38F
ELIZABETHTON   CLEAR     64  27  24 CALM      30.37F
$$

TNZ012-013-036-069-073-074-171900-
CENTRAL EAST TENNESSEE

CITY           SKY/WX    TMP DP  RH WIND       PRES   REMARKS
KNOXVILLE      MOSUNNY   61  31  32 W3        30.38F
OAK RIDGE      SUNNY     63  30  28 VRB3      30.39F
$$

TNZ083-085-099-171900-
SOUTHEAST TENNESSEE

CITY           SKY/WX    TMP DP  RH WIND       PRES   REMARKS
CHATTANOOGA    MOSUNNY   62  33  33 S10       30.37F
$$

SKY/WX REPORTED AS FAIR MEANS FEW OR NO CLOUDS BELOW
12 THOUSAND FEET.




USA.gov is the U.S. government's official web portal to all federal, state and local government web resources and services.